Location: Tel Aviv
(32.0670°N, 34.7670°E)
Time: 21:35:36
(UTC+02:00)

Tiros 1 - Visible Passes

Search period start: 25 January 2022 00:00
Search period end: 04 February 2022 00:00
Orbit: 629 x 664 km, 48.4° (Epoch: 25 January)

Date Brightness Start Highest point End Pass type
(mag) Time Alt. Az. Time Alt. Az. Time Alt. Az.
25 Jan 8.4 04:18:23 37° NE 04:18:23 37° NE 04:22:09 10° ESE visible
25 Jan 8.1 05:56:04 12° WNW 05:59:51 32° SW 06:04:00 10° SSE visible
26 Jan 7.0 04:43:34 83° NW 04:43:44 88° NE 04:48:26 10° SE visible
27 Jan 10.1 03:31:08 13° E 03:31:08 13° E 03:31:40 10° E visible
27 Jan 7.8 05:08:50 34° WSW 05:09:29 36° SW 05:13:46 10° SSE visible
27 Jan 9.7 19:14:36 10° S 19:14:48 11° S 19:14:48 11° S visible
28 Jan 9.4 03:56:29 21° SE 03:56:29 21° SE 03:58:03 10° SE visible
28 Jan 9.0 05:34:10 13° WSW 05:35:01 14° SW 05:37:24 10° SSW visible
28 Jan 9.4 19:39:05 10° SSW 19:40:18 18° SSW 19:40:18 18° SSW visible
29 Jan 9.1 04:21:53 20° SSE 04:21:53 20° SSE 04:23:29 10° SSE visible
29 Jan 8.8 18:24:29 10° S 18:27:45 18° SE 18:28:05 18° ESE visible
29 Jan 9.8 20:04:47 10° WSW 20:05:46 16° WSW 20:05:46 16° WSW visible
30 Jan 9.6 04:47:21 10° SSW 04:47:21 10° SSW 04:47:27 10° SSW visible
30 Jan 7.5 18:48:46 10° SSW 18:53:19 46° SE 18:53:31 46° SE visible
31 Jan 9.0 17:34:26 10° SSE 17:37:22 16° SE 17:40:20 10° E visible
31 Jan 7.3 19:14:22 10° WSW 19:18:53 70° WNW 19:18:53 70° WNW visible
01 Feb 7.7 17:58:28 10° SSW 18:02:56 42° SE 18:06:29 15° ENE visible
01 Feb 8.8 19:40:50 10° W 19:44:10 30° WNW 19:44:10 30° WNW visible
02 Feb 7.2 18:23:56 10° SW 18:28:42 79° NW 18:31:42 23° NE visible
02 Feb 9.9 20:08:01 10° WNW 20:09:23 15° NW 20:09:23 15° NW visible
03 Feb 8.4 18:50:19 10° W 18:54:44 36° NNW 18:56:50 24° NNE visible
